Location: Julian California
(33.0790°N, 116.6010°W)
Time: 18:47:25
(UTC-07:00)

Daily predictions for brighter satellites

Satellite Brightness Start Highest point End
(mag) Time Altitude Azimuth Time Altitude Azimuth Time Altitude Azimuth
Cosmos 1850 Rocket 4.1 20:18:15 10° S 20:23:14 52° ESE 20:28:16 10° NNE
Meteor 1-24 Rocket 3.8 20:18:40 10° S 20:24:35 80° E 20:30:21 10° N
USA 234 4.3 20:19:50 10° ENE 20:24:38 21° ESE 20:29:23 10° S
Cosmos 2221 4.0 20:21:26 10° NNE 20:24:47 21° ENE 20:28:07 10° SE
Cosmos 1727 Rocket 4.1 20:23:37 10° S 20:29:50 66° E 20:36:07 10° NNE
Cosmos 2219 Rocket 3.5 20:27:07 10° NW 20:32:20 39° WSW 20:37:31 10° S
Abrixas 3.6 20:33:13 10° S 20:35:15 19° SE 20:37:16 10° E
Atlas Centaur 2 1.6 20:32:52 10° W 20:36:38 44° S 20:39:58 11° ESE
CZ-4B DEB 4.1 20:37:03 10° ESE 20:39:17 20° ENE 20:41:34 10° NNE
Okean 3 Rocket 3.8 20:39:07 10° SSE 20:43:27 50° E 20:47:46 10° NNE
Cosmos 2333 Rocket 3.6 20:41:50 10° NW 20:46:56 36° WSW 20:52:01 10° S
Cosmos 1741 Rocket 4.1 20:44:04 10° SSW 20:49:22 87° WNW 20:54:42 10° NNE
SJ-11-01 4.4 20:46:32 10° SSE 20:51:11 61° ENE 20:55:52 10° N
H-2A R/B 4.2 20:50:18 10° ENE 20:51:37 11° ENE 20:52:56 10° NE
Spot 2 Rocket 4.2 20:47:19 10° S 20:52:13 54° W 20:57:11 10° NNW
NOSS 3-4 (A) 4.0 20:45:03 10° NNW 20:52:15 84° WSW 20:59:53 10° SSE
NOSS 3-4 (C) 4.0 20:45:09 10° NNW 20:52:21 84° WSW 20:59:59 10° SSE
YAOGAN 6 3.3 20:49:54 13° SE 20:52:45 36° ENE 20:56:08 10° N
Helios 1B rocket 2.4 20:48:37 10° NNE 20:52:46 75° ESE 20:56:52 10° S
Cosmos 2227 4.4 20:48:21 10° S 20:53:50 50° ESE 20:59:19 10° NNE
Cosmos 1818 3.7 20:55:28 10° NNW 21:00:51 61° ENE 21:05:03 16° SE
Meteor 2-1 Rocket 4.3 20:56:04 10° N 21:01:51 84° W 21:07:30 10° S
Helios 1A 2.9 20:58:05 10° SSE 21:02:08 78° ENE 21:06:17 10° N
GPS 2-05 Rocket1 2.4 21:01:49 10° WSW 21:04:52 67° SSE 21:07:28 14° E
Cosmos 1726 4.0 21:03:07 10° NE 21:05:15 15° ENE 21:06:02 14° E
Delta 2 Rocket 4.1 21:00:30 10° WSW 21:06:03 71° SSE 21:11:50 10° ENE
USA 186 4.0 21:10:59 10° SW 21:12:16 14° W 21:13:31 10° WNW
Cosmos 2263 Rocket 3.3 21:10:47 19° SE 21:12:38 22° E 21:16:48 10° NE
Cosmos 1356 Rocket 3.4 21:09:31 10° S 21:13:43 85° E 21:18:01 10° N
ATLAS 5 CENTAUR R/B 4.1 21:10:42 10° WSW 21:14:39 27° NW 21:18:51 10° N
Meteor 1-29 3.4 21:11:42 10° N 21:15:06 64° WNW 21:18:31 10° SSW
Resurs 01 Rocket 3.9 21:12:04 10° SSW 21:15:28 22° W 21:18:53 10° NW
Envisat 3.7 21:12:02 10° S 21:16:58 53° W 21:21:55 10° NNW
SPOT 5 4.2 21:14:52 18° ESE 21:17:07 26° ENE 21:21:13 10° NNE
Lacrosse 5 3.2 21:14:55 10° NNW 21:19:17 28° NE 21:22:21 16° E
CZ-3B R/B 4.2 21:18:15 10° WSW 21:20:44 54° NW 21:27:36 10° NE
SL-14 R/B 4.3 21:20:15 25° ESE 21:21:05 27° E 21:24:26 10° NNE
Meteor 1-21 Rocket 4.3 21:21:22 10° S 21:27:03 81° W 21:32:40 10° N
Cosmos 220 Rocket 4.2 21:24:42 18° S 21:27:43 50° ESE 21:31:58 10° NNE
SAR-Lupe-4 3.9 21:27:26 20° S 21:29:42 61° WSW 21:33:15 10° NNW
RESURS DK-1 3.3 21:26:38 10° N 21:30:24 33° ENE 21:31:40 27° E
Cosmos 1486 Rocket 4.4 21:27:59 22° SSE 21:30:55 42° E 21:35:52 10° NNE
Cosmos 1328 4.4 21:31:45 33° ESE 21:32:37 38° E 21:36:21 10° NNE
Cosmos 2208 Rocket 4.1 21:29:23 10° NNW 21:34:45 77° WSW 21:38:16 22° S
Cosmos 1674 3.8 21:31:31 10° SSW 21:35:06 42° W 21:38:41 10° N
Cosmos 1459 Rocket 3.9 21:29:38 10° N 21:35:56 88° E 21:40:30 19° S
MetOp-A 4.1 21:42:06 29° SSE 21:44:53 77° ENE 21:50:15 10° N
Cosmos 2100 Rocket 4.2 21:38:39 10° N 21:44:58 72° W 21:50:01 17° S
SPOT 1/Viking Rocket 4.2 21:44:45 30° ESE 21:46:18 37° ENE 21:51:01 10° N
Cosmos 1242 Rocket 3.3 21:42:42 10° NNW 21:46:18 49° W 21:48:02 26° SSW
Terra 3.6 21:46:09 16° ENE 21:46:51 16° ENE 21:49:44 10° NNE
Meteor 2-2 Rocket 4.5 21:42:35 10° N 21:48:20 57° E 21:50:44 34° SE
Cosmos 1603 3.8 21:43:06 10° NNW 21:48:42 63° ENE 21:50:55 36° SE
ARGOS 3.2 21:46:57 34° SE 21:49:18 64° ENE 21:54:39 10° N
Cosmos 2123 Rocket 3.9 21:45:42 22° S 21:49:50 74° E 21:56:01 10° N
Cosmos 1408 Rocket 4.1 21:47:39 15° SSW 21:51:06 56° W 21:55:21 10° N
Cosmos 1908 4.5 21:49:14 10° NNW 21:52:49 37° W 21:54:55 20° SSW
Cosmos 2173 Rocket 4.2 21:46:49 10° NNW 21:52:57 68° W 21:57:30 19° S
Cosmos 332 Rocket 3.9 21:50:15 10° N 21:55:06 62° ENE 21:56:24 44° SE
Cosmos 2061 Rocket 4.2 21:49:12 10° N 21:55:34 71° W 22:00:00 21° S
Cosmos 2151 3.6 21:56:00 38° E 21:56:00 38° E 21:59:52 10° NNE
Tiangong 1 3.7 22:00:19 10° NNW 22:01:46 13° N 22:02:40 12° NNE
Cosmos 1943 3.9 21:57:20 10° N 22:02:36 39° ENE 22:04:01 33° E
ERS-1 Rocket 3.6 22:01:49 25° SSW 22:04:28 51° W 22:09:22 10° NNW
SL-16 R/B 3.8 22:00:16 10° NW 22:04:59 28° WSW 22:08:50 14° SSW
Cosmos 468 Rocket 3.9 22:01:56 10° NNW 22:07:04 81° WSW 22:08:36 46° S
USA 234 3.3 22:01:24 10° NE 22:07:57 80° NW 22:14:28 10° SW
Cosmos 1500 Rocket 3.4 22:11:29 66° SSE 22:12:01 79° E 22:16:29 10° N
Cosmos 1503 Rocket 3.9 22:16:52 57° ESE 22:17:11 58° ESE 22:22:16 10° NNE
Cosmos 1725 Rocket 3.9 22:11:15 10° N 22:17:30 88° W 22:19:46 42° S
Cosmos 1703 4.1 22:23:54 42° NE 22:23:54 42° NE 22:26:48 10° NNE
CARTOSAT-1 4.5 22:23:32 36° ENE 22:23:32 36° ENE 22:27:02 10° N
Atlas Centaur 2 3.8 22:22:35 10° WSW 22:22:36 10° WSW 22:22:36 10° WSW
Sakura Rocket 4.0 22:18:10 10° W 22:26:04 56° S 22:26:59 52° SSE
H-2A R/B 2.1 22:29:11 59° S 22:30:13 81° W 22:35:39 10° NNW
IGS 5A 4.4 22:32:08 38° NE 22:32:08 38° NE 22:35:17 10° N
Cosmos 1626 3.2 22:33:19 41° NNE 22:33:19 41° NNE 22:35:48 10° N
ERBS 3.9 22:30:15 10° NNW 22:32:23 35° NNW 22:32:23 35° NNW
Cosmos 1328 Rocket 4.3 22:33:41 10° NNW 22:37:45 42° W 22:38:07 41° WSW
Milstar 3 Cent rocket 4.4 22:30:19 10° W 22:38:08 40° SSW 22:41:27 35° SSE
Cosmos 1726 4.1 22:37:36 10° NW 22:40:30 22° W 22:40:39 22° W
Cosmos 1151 Rocket 3.2 22:36:22 10° N 22:40:20 70° NW 22:40:20 70° NW
CZ-4C R/B 3.1 22:45:00 33° ENE 22:45:00 33° ENE 22:48:26 10° NE
H-2A R/B 3.0 22:44:58 40° NE 22:44:58 40° NE 22:48:07 10° N
Cosmos 371 Rocket 3.8 22:39:44 10° NNW 22:44:21 48° WSW 22:44:36 48° WSW
Cosmos 1515 Rocket 4.1 22:40:56 10° NNW 22:44:59 50° W 22:44:59 50° W
Delta 2 Rocket 4.3 22:43:20 10° W 22:49:05 70° N 22:51:00 42° ENE
SPOT 5 4.3 22:54:06 26° WSW 22:55:00 28° W 22:59:17 10° NW
Cosmos 2263 Rocket 3.3 22:52:22 17° SW 22:56:12 39° WNW 23:01:25 10° N
Cosmos 2058 4.3 23:00:15 35° WNW 23:00:15 35° WNW 23:04:00 10° NNW
Lacrosse 5 2.9 22:57:36 10° NW 23:01:33 36° WSW 23:01:33 36° WSW
Cosmos 2233 Rocket 4.4 23:01:58 10° NNW 23:07:57 54° W 23:08:58 49° SW
Cosmos 841 Rocket 4.4 23:10:51 10° NNW 23:15:25 41° W 23:15:25 41° W
Terra 2.9 23:25:03 38° WNW 23:25:03 38° WNW 23:28:41 10° NNW
Cosmos 1455 4.3 23:20:34 10° NNW 23:22:25 26° NNW 23:22:25 26° NNW
Cosmos 1844 Rocket 3.3 23:30:41 49° NE 23:30:41 49° NE 23:34:45 10° NNE
